Year,Month,Day,Hour,Minute,Value (Times are PST for temperature in C)
2011,08,19,00,00,13.30
2011,08,19,00,01,13.30
2011,08,19,00,02,13.20
2011,08,19,00,03,13.20
2011,08,19,00,04,13.20
2011,08,19,00,05,13.20
2011,08,19,00,06,13.20
2011,08,19,00,07,13.20
2011,08,19,00,08,13.10
2011,08,19,00,09,13.10
2011,08,19,00,10,13.10
2011,08,19,00,11,13.10
2011,08,19,00,12,13.10
2011,08,19,00,13,13.00
2011,08,19,00,14,13.00
2011,08,19,00,15,13.00
2011,08,19,00,16,13.00
2011,08,19,00,17,13.00
2011,08,19,00,18,12.90
2011,08,19,00,19,12.90
2011,08,19,00,20,12.90
2011,08,19,00,21,12.90
2011,08,19,00,22,12.90
2011,08,19,00,23,12.90
2011,08,19,00,24,12.90
2011,08,19,00,25,12.80
2011,08,19,00,26,12.80
2011,08,19,00,27,12.80
2011,08,19,00,28,12.80
2011,08,19,00,29,12.80
2011,08,19,00,30,12.80
2011,08,19,00,31,12.70
2011,08,19,00,32,12.70
2011,08,19,00,33,12.70
2011,08,19,00,34,12.70
2011,08,19,00,35,12.70
2011,08,19,00,36,12.60
2011,08,19,00,37,12.60
2011,08,19,00,38,12.60
2011,08,19,00,39,12.60
2011,08,19,00,40,12.60
2011,08,19,00,41,12.60
2011,08,19,00,42,12.50
2011,08,19,00,43,12.50
2011,08,19,00,44,12.50
2011,08,19,00,45,12.40
2011,08,19,00,46,12.40
2011,08,19,00,47,12.40
2011,08,19,00,48,12.40
2011,08,19,00,49,12.40
2011,08,19,00,50,12.30
2011,08,19,00,51,12.30
2011,08,19,00,52,12.30
2011,08,19,00,53,12.30
2011,08,19,00,54,12.30
2011,08,19,00,55,12.30
2011,08,19,00,56,12.30
2011,08,19,00,57,12.30
2011,08,19,00,58,12.30
2011,08,19,00,59,12.30
2011,08,19,01,00,12.20
2011,08,19,01,01,12.20
2011,08,19,01,02,12.20
2011,08,19,01,03,12.20
2011,08,19,01,04,12.20
2011,08,19,01,05,12.20
2011,08,19,01,06,12.20
2011,08,19,01,07,12.20
2011,08,19,01,08,12.20
2011,08,19,01,09,12.10
2011,08,19,01,10,12.10
2011,08,19,01,11,12.10
2011,08,19,01,12,12.10
2011,08,19,01,13,12.10
2011,08,19,01,14,12.10
2011,08,19,01,15,12.10
2011,08,19,01,16,12.10
2011,08,19,01,17,12.10
2011,08,19,01,18,12.00
2011,08,19,01,19,12.00
2011,08,19,01,20,12.00
2011,08,19,01,21,12.00
2011,08,19,01,22,12.00
2011,08,19,01,23,12.00
2011,08,19,01,24,11.90
2011,08,19,01,25,11.90
2011,08,19,01,26,11.90
2011,08,19,01,27,11.90
2011,08,19,01,28,11.90
2011,08,19,01,29,11.90
2011,08,19,01,30,11.90
2011,08,19,01,31,11.90
2011,08,19,01,32,11.90
2011,08,19,01,33,11.80
2011,08,19,01,34,11.80
2011,08,19,01,35,11.80
2011,08,19,01,36,11.80
2011,08,19,01,37,11.80
2011,08,19,01,38,11.80
2011,08,19,01,39,11.80
2011,08,19,01,40,11.80
2011,08,19,01,41,11.70
2011,08,19,01,42,11.70
2011,08,19,01,43,11.70
2011,08,19,01,44,11.70
2011,08,19,01,45,11.70
2011,08,19,01,46,11.70
2011,08,19,01,47,11.70
2011,08,19,01,48,11.70
2011,08,19,01,49,11.70
2011,08,19,01,50,11.70
2011,08,19,01,51,11.70
2011,08,19,01,52,11.60
2011,08,19,01,53,11.60
2011,08,19,01,54,11.60
2011,08,19,01,55,11.60
2011,08,19,01,56,11.60
2011,08,19,01,57,11.60
2011,08,19,01,58,11.60
2011,08,19,01,59,11.60
2011,08,19,02,00,11.60
2011,08,19,02,01,11.60
2011,08,19,02,02,11.50
2011,08,19,02,03,11.50
2011,08,19,02,04,11.50
2011,08,19,02,05,11.50
2011,08,19,02,06,11.50
2011,08,19,02,07,11.50
2011,08,19,02,08,11.50
2011,08,19,02,09,11.50
2011,08,19,02,10,11.50
2011,08,19,02,11,11.50
2011,08,19,02,12,11.50
2011,08,19,02,13,11.50
2011,08,19,02,14,11.50
2011,08,19,02,15,11.40
2011,08,19,02,16,11.40
2011,08,19,02,17,11.40
2011,08,19,02,18,11.40
2011,08,19,02,19,11.40
2011,08,19,02,20,11.40
2011,08,19,02,21,11.40
2011,08,19,02,22,11.40
2011,08,19,02,23,11.40
2011,08,19,02,24,11.40
2011,08,19,02,25,11.40
2011,08,19,02,26,11.40
2011,08,19,02,27,11.40
2011,08,19,02,28,11.40
2011,08,19,02,29,11.40
2011,08,19,02,30,11.40
2011,08,19,02,31,11.40
2011,08,19,02,32,11.30
2011,08,19,02,33,11.30
2011,08,19,02,34,11.30
2011,08,19,02,35,11.30
2011,08,19,02,36,11.30
2011,08,19,02,37,11.30
2011,08,19,02,38,11.30
2011,08,19,02,39,11.30
2011,08,19,02,40,11.30
2011,08,19,02,41,11.30
2011,08,19,02,42,11.30
2011,08,19,02,43,11.30
2011,08,19,02,44,11.30
2011,08,19,02,45,11.30
2011,08,19,02,46,11.30
2011,08,19,02,47,11.30
2011,08,19,02,48,11.30
2011,08,19,02,49,11.30
2011,08,19,02,50,11.30
2011,08,19,02,51,11.20
2011,08,19,02,52,11.20
2011,08,19,02,53,11.20
2011,08,19,02,54,11.20
2011,08,19,02,55,11.20
2011,08,19,02,56,11.20
2011,08,19,02,57,11.20
2011,08,19,02,58,11.20
2011,08,19,02,59,11.20
2011,08,19,03,00,11.20
2011,08,19,03,01,11.10
2011,08,19,03,02,11.10
2011,08,19,03,03,11.10
2011,08,19,03,04,11.10
2011,08,19,03,05,11.10
2011,08,19,03,06,11.10
2011,08,19,03,07,11.10
2011,08,19,03,08,11.00
2011,08,19,03,09,11.00
2011,08,19,03,10,11.00
2011,08,19,03,11,10.90
2011,08,19,03,12,10.90
2011,08,19,03,13,10.90
2011,08,19,03,14,10.90
2011,08,19,03,15,10.90
2011,08,19,03,16,10.90
2011,08,19,03,17,10.90
2011,08,19,03,18,10.80
2011,08,19,03,19,10.80
2011,08,19,03,20,10.80
2011,08,19,03,21,10.80
2011,08,19,03,22,10.80
2011,08,19,03,23,10.80
2011,08,19,03,24,10.80
2011,08,19,03,25,10.80
2011,08,19,03,26,10.80
2011,08,19,03,27,10.80
2011,08,19,03,28,10.80
2011,08,19,03,29,10.80
2011,08,19,03,30,10.80
2011,08,19,03,31,10.80
2011,08,19,03,32,10.80
2011,08,19,03,33,10.80
2011,08,19,03,34,10.80
2011,08,19,03,35,10.80
2011,08,19,03,36,10.80
2011,08,19,03,37,10.80
2011,08,19,03,38,10.80
2011,08,19,03,39,10.70
2011,08,19,03,40,10.70
2011,08,19,03,41,10.70
2011,08,19,03,42,10.70
2011,08,19,03,43,10.70
2011,08,19,03,44,10.70
2011,08,19,03,45,10.70
2011,08,19,03,46,10.70
2011,08,19,03,47,10.70
2011,08,19,03,48,10.70
2011,08,19,03,49,10.70
2011,08,19,03,50,10.70
2011,08,19,03,51,10.60
2011,08,19,03,52,10.60
2011,08,19,03,53,10.60
2011,08,19,03,54,10.60
2011,08,19,03,55,10.60
2011,08,19,03,56,10.60
2011,08,19,03,57,10.60
2011,08,19,03,58,10.60
2011,08,19,03,59,10.60
2011,08,19,04,00,10.50
2011,08,19,04,01,10.50
2011,08,19,04,02,10.50
2011,08,19,04,03,10.40
2011,08,19,04,04,10.40
2011,08,19,04,05,10.40
2011,08,19,04,06,10.40
2011,08,19,04,07,10.40
2011,08,19,04,08,10.40
2011,08,19,04,09,10.40
2011,08,19,04,10,10.40
2011,08,19,04,11,10.30
2011,08,19,04,12,10.40
2011,08,19,04,13,10.30
2011,08,19,04,14,10.40
2011,08,19,04,15,10.30
2011,08,19,04,16,10.30
2011,08,19,04,17,10.30
2011,08,19,04,18,10.30
2011,08,19,04,19,10.30
2011,08,19,04,20,10.30
2011,08,19,04,21,10.30
2011,08,19,04,22,10.30
2011,08,19,04,23,10.30
2011,08,19,04,24,10.30
2011,08,19,04,25,10.30
2011,08,19,04,26,10.30
2011,08,19,04,27,10.30
2011,08,19,04,28,10.30
2011,08,19,04,29,10.30
2011,08,19,04,30,10.30
2011,08,19,04,31,10.30
2011,08,19,04,32,10.20
2011,08,19,04,33,10.20
2011,08,19,04,34,10.20
2011,08,19,04,35,10.20
2011,08,19,04,36,10.20
2011,08,19,04,37,10.20
2011,08,19,04,38,10.20
2011,08,19,04,39,10.20
2011,08,19,04,40,10.10
2011,08,19,04,41,10.10
2011,08,19,04,42,10.10
2011,08,19,04,43,10.10
2011,08,19,04,44,10.10
2011,08,19,04,45,10.10
2011,08,19,04,46,10.10
2011,08,19,04,47,10.10
2011,08,19,04,48,10.10
2011,08,19,04,49,10.10
2011,08,19,04,50,10.10
2011,08,19,04,51,10.10
2011,08,19,04,52,10.10
2011,08,19,04,53,10.10
2011,08,19,04,54,10.10
2011,08,19,04,55,10.10
2011,08,19,04,56,10.10
2011,08,19,04,57,10.10
2011,08,19,04,58,10.10
2011,08,19,04,59,10.00
2011,08,19,05,00,10.00
2011,08,19,05,01,10.00
2011,08,19,05,02,10.00
2011,08,19,05,03,9.90
2011,08,19,05,04,9.90
2011,08,19,05,05,9.90
2011,08,19,05,06,9.90
2011,08,19,05,07,9.90
2011,08,19,05,08,9.90
2011,08,19,05,09,9.90
2011,08,19,05,10,9.90
2011,08,19,05,11,9.90
2011,08,19,05,12,9.90
2011,08,19,05,13,9.90
2011,08,19,05,14,9.80
2011,08,19,05,15,9.80
2011,08,19,05,16,9.80
2011,08,19,05,17,9.80
2011,08,19,05,18,9.80
2011,08,19,05,19,9.70
2011,08,19,05,20,9.70
2011,08,19,05,21,9.70
2011,08,19,05,22,9.70
2011,08,19,05,23,9.70
2011,08,19,05,24,9.70
2011,08,19,05,25,9.70
2011,08,19,05,26,9.70
2011,08,19,05,27,9.70
2011,08,19,05,28,9.70
2011,08,19,05,29,9.70
2011,08,19,05,30,9.70
2011,08,19,05,31,9.70
2011,08,19,05,32,9.70
2011,08,19,05,33,9.70
2011,08,19,05,34,9.70
2011,08,19,05,35,9.60
2011,08,19,05,36,9.60
2011,08,19,05,37,9.60
2011,08,19,05,38,9.60
2011,08,19,05,39,9.60
2011,08,19,05,40,9.60
2011,08,19,05,41,9.60
2011,08,19,05,42,9.60
2011,08,19,05,43,9.60
2011,08,19,05,44,9.60
2011,08,19,05,45,9.60
2011,08,19,05,46,9.60
2011,08,19,05,47,9.60
2011,08,19,05,48,9.60
2011,08,19,05,49,9.50
2011,08,19,05,50,9.50
2011,08,19,05,51,9.50
2011,08,19,05,52,9.50
2011,08,19,05,53,9.50
2011,08,19,05,54,9.50
2011,08,19,05,55,9.50
2011,08,19,05,56,9.50
2011,08,19,05,57,9.50
2011,08,19,05,58,9.40
2011,08,19,05,59,9.40
2011,08,19,06,00,9.40
2011,08,19,06,01,9.40
2011,08,19,06,02,9.40
2011,08,19,06,03,9.40
2011,08,19,06,04,9.40
2011,08,19,06,05,9.50
2011,08,19,06,06,9.40
2011,08,19,06,07,9.40
2011,08,19,06,08,9.40
2011,08,19,06,09,9.50
2011,08,19,06,10,9.50
2011,08,19,06,11,9.50
2011,08,19,06,12,9.50
2011,08,19,06,13,9.50
2011,08,19,06,14,9.50
2011,08,19,06,15,9.50
2011,08,19,06,16,9.50
2011,08,19,06,17,9.50
2011,08,19,06,18,9.40
2011,08,19,06,19,9.40
2011,08,19,06,20,9.40
2011,08,19,06,21,9.30
2011,08,19,06,22,9.30
2011,08,19,06,23,9.30
2011,08,19,06,24,9.30
2011,08,19,06,25,9.30
2011,08,19,06,26,9.30
2011,08,19,06,27,9.30
2011,08,19,06,28,9.30
2011,08,19,06,29,9.30
2011,08,19,06,30,9.30
2011,08,19,06,31,9.30
2011,08,19,06,32,9.30
2011,08,19,06,33,9.30
2011,08,19,06,34,9.30
2011,08,19,06,35,9.30
2011,08,19,06,36,9.30
2011,08,19,06,37,9.30
2011,08,19,06,38,9.30
2011,08,19,06,39,9.30
2011,08,19,06,40,9.30
2011,08,19,06,41,9.30
2011,08,19,06,42,9.30
2011,08,19,06,43,9.30
2011,08,19,06,44,9.30
2011,08,19,06,45,9.30
2011,08,19,06,46,9.30
2011,08,19,06,47,9.30
2011,08,19,06,48,9.30
2011,08,19,06,49,9.30
2011,08,19,06,50,9.30
2011,08,19,06,51,9.30
2011,08,19,06,52,9.30
2011,08,19,06,53,9.40
2011,08,19,06,54,9.40
2011,08,19,06,55,9.40
2011,08,19,06,56,9.40
2011,08,19,06,57,9.40
2011,08,19,06,58,9.40
2011,08,19,06,59,9.30
2011,08,19,07,00,9.30
2011,08,19,07,01,9.30
2011,08,19,07,02,9.30
2011,08,19,07,03,9.30
2011,08,19,07,04,9.30
2011,08,19,07,05,9.40
2011,08,19,07,06,9.40
2011,08,19,07,07,9.40
2011,08,19,07,08,9.40
2011,08,19,07,09,9.40
2011,08,19,07,10,9.40
2011,08,19,07,11,9.40
2011,08,19,07,12,9.40
2011,08,19,07,13,9.50
2011,08,19,07,14,9.60
2011,08,19,07,15,9.60
2011,08,19,07,16,9.60
2011,08,19,07,17,9.70
2011,08,19,07,18,9.80
2011,08,19,07,19,9.90
2011,08,19,07,20,10.00
2011,08,19,07,21,10.00
2011,08,19,07,22,10.10
2011,08,19,07,23,10.20
2011,08,19,07,24,10.20
2011,08,19,07,25,10.30
2011,08,19,07,26,10.40
2011,08,19,07,27,10.40
2011,08,19,07,28,10.50
2011,08,19,07,29,10.50
2011,08,19,07,30,10.60
2011,08,19,07,31,10.60
2011,08,19,07,32,10.70
2011,08,19,07,33,10.80
2011,08,19,07,34,10.80
2011,08,19,07,35,10.90
2011,08,19,07,36,11.00
2011,08,19,07,37,11.10
2011,08,19,07,38,11.10
2011,08,19,07,39,11.20
2011,08,19,07,40,11.30
2011,08,19,07,41,11.30
2011,08,19,07,42,11.40
2011,08,19,07,43,11.50
2011,08,19,07,44,11.60
2011,08,19,07,45,11.80
2011,08,19,07,46,11.90
2011,08,19,07,47,12.00
2011,08,19,07,48,12.10
2011,08,19,07,49,12.20
2011,08,19,07,50,12.30
2011,08,19,07,51,12.40
2011,08,19,07,52,12.50
2011,08,19,07,53,12.60
2011,08,19,07,54,12.70
2011,08,19,07,55,12.80
2011,08,19,07,56,12.80
2011,08,19,07,57,12.90
2011,08,19,07,58,13.00
2011,08,19,07,59,13.10
2011,08,19,08,00,13.20
2011,08,19,08,01,13.30
2011,08,19,08,02,13.40
2011,08,19,08,03,13.50
2011,08,19,08,04,13.60
2011,08,19,08,05,13.80
2011,08,19,08,06,13.90
2011,08,19,08,07,14.10
2011,08,19,08,08,14.20
2011,08,19,08,09,14.30
2011,08,19,08,10,14.50
2011,08,19,08,11,14.60
2011,08,19,08,12,14.70
2011,08,19,08,13,14.90
2011,08,19,08,14,15.00
2011,08,19,08,15,15.00
2011,08,19,08,16,15.10
2011,08,19,08,17,15.30
2011,08,19,08,18,15.30
2011,08,19,08,19,15.40
2011,08,19,08,20,15.50
2011,08,19,08,21,15.50
2011,08,19,08,22,15.60
2011,08,19,08,23,15.60
2011,08,19,08,24,15.70
2011,08,19,08,25,15.70
2011,08,19,08,26,15.80
2011,08,19,08,27,15.80
2011,08,19,08,28,15.80
2011,08,19,08,29,15.90
2011,08,19,08,30,16.00
2011,08,19,08,31,16.00
2011,08,19,08,32,16.10
2011,08,19,08,33,16.20
2011,08,19,08,34,16.30
2011,08,19,08,35,16.30
2011,08,19,08,36,16.40
2011,08,19,08,37,16.50
2011,08,19,08,38,16.60
2011,08,19,08,39,16.70
2011,08,19,08,40,16.70
2011,08,19,08,41,16.80
2011,08,19,08,42,16.80
2011,08,19,08,43,16.90
2011,08,19,08,44,17.00
2011,08,19,08,45,17.10
2011,08,19,08,46,17.20
2011,08,19,08,47,17.20
2011,08,19,08,48,17.30
2011,08,19,08,49,17.30
2011,08,19,08,50,17.40
2011,08,19,08,51,17.50
2011,08,19,08,52,17.50
2011,08,19,08,53,17.60
2011,08,19,08,54,17.70
2011,08,19,08,55,17.80
2011,08,19,08,56,17.90
2011,08,19,08,57,17.90
2011,08,19,08,58,18.00
2011,08,19,08,59,18.10
2011,08,19,09,00,18.10
2011,08,19,09,01,18.20
2011,08,19,09,02,18.30
2011,08,19,09,03,18.40
2011,08,19,09,04,18.40
2011,08,19,09,05,18.40
2011,08,19,09,06,18.50
2011,08,19,09,07,18.50
2011,08,19,09,08,18.40
2011,08,19,09,09,18.40
2011,08,19,09,10,18.40
2011,08,19,09,11,18.40
2011,08,19,09,12,18.40
2011,08,19,09,13,18.50
2011,08,19,09,14,18.50
2011,08,19,09,15,18.60
2011,08,19,09,16,18.70
2011,08,19,09,17,18.70
2011,08,19,09,18,18.80
2011,08,19,09,19,18.90
2011,08,19,09,20,18.90
2011,08,19,09,21,18.80
2011,08,19,09,22,18.80
2011,08,19,09,23,18.80
2011,08,19,09,24,18.70
2011,08,19,09,25,18.70
2011,08,19,09,26,18.70
2011,08,19,09,27,18.80
2011,08,19,09,28,18.80
2011,08,19,09,29,18.90
2011,08,19,09,30,19.00
2011,08,19,09,31,19.00
2011,08,19,09,32,19.00
2011,08,19,09,33,18.90
2011,08,19,09,34,18.80
2011,08,19,09,35,18.80
2011,08,19,09,36,18.90
2011,08,19,09,37,18.90
2011,08,19,09,38,18.90
2011,08,19,09,39,18.90
2011,08,19,09,40,18.90
2011,08,19,09,41,18.80
2011,08,19,09,42,18.80
2011,08,19,09,43,18.80
2011,08,19,09,44,18.90
2011,08,19,09,45,18.90
2011,08,19,09,46,18.90
2011,08,19,09,47,19.00
2011,08,19,09,48,19.00
2011,08,19,09,49,19.00
2011,08,19,09,50,18.90
2011,08,19,09,51,18.90
2011,08,19,09,52,18.80
2011,08,19,09,53,18.70
2011,08,19,09,54,18.70
2011,08,19,09,55,18.70
2011,08,19,09,56,18.70
2011,08,19,09,57,18.80
2011,08,19,09,58,18.80
2011,08,19,09,59,18.80
2011,08,19,10,00,18.90
2011,08,19,10,01,18.90
2011,08,19,10,02,19.00
2011,08,19,10,03,19.10
2011,08,19,10,04,19.20
2011,08,19,10,05,19.30
2011,08,19,10,06,19.30
2011,08,19,10,07,19.20
2011,08,19,10,08,19.20
2011,08,19,10,09,19.20
2011,08,19,10,10,19.20
2011,08,19,10,11,19.30
2011,08,19,10,12,19.30
2011,08,19,10,13,19.40
2011,08,19,10,14,19.50
2011,08,19,10,15,19.60
2011,08,19,10,16,19.60
2011,08,19,10,17,19.50
2011,08,19,10,18,19.50
2011,08,19,10,19,19.40
2011,08,19,10,20,19.40
2011,08,19,10,21,19.30
2011,08,19,10,22,19.30
2011,08,19,10,23,19.30
2011,08,19,10,24,19.30
2011,08,19,10,25,19.30
2011,08,19,10,26,19.30
2011,08,19,10,27,19.40
2011,08,19,10,28,19.40
2011,08,19,10,29,19.40
2011,08,19,10,30,19.50
2011,08,19,10,31,19.50
2011,08,19,10,32,19.50
2011,08,19,10,33,19.40
2011,08,19,10,34,19.50
2011,08,19,10,35,19.50
2011,08,19,10,36,19.60
2011,08,19,10,37,19.70
2011,08,19,10,38,19.70
2011,08,19,10,39,19.60
2011,08,19,10,40,19.60
2011,08,19,10,41,19.60
2011,08,19,10,42,19.60
2011,08,19,10,43,19.60
2011,08,19,10,44,19.60
2011,08,19,10,45,19.70
2011,08,19,10,46,19.60
2011,08,19,10,47,19.70
2011,08,19,10,48,19.70
2011,08,19,10,49,19.60
2011,08,19,10,50,19.60
2011,08,19,10,51,19.60
2011,08,19,10,52,19.60
2011,08,19,10,53,19.60
2011,08,19,10,54,19.60
2011,08,19,10,55,19.60
2011,08,19,10,56,19.60
2011,08,19,10,57,19.60
2011,08,19,10,58,19.60
2011,08,19,10,59,19.70
2011,08,19,11,00,19.70
2011,08,19,11,01,19.70
2011,08,19,11,02,19.80
2011,08,19,11,03,19.90
2011,08,19,11,04,19.90
2011,08,19,11,05,20.00
2011,08,19,11,06,20.00
2011,08,19,11,07,20.00
2011,08,19,11,08,20.00
2011,08,19,11,09,20.00
2011,08,19,11,10,19.90
2011,08,19,11,11,19.90
2011,08,19,11,12,19.90
2011,08,19,11,13,19.90
2011,08,19,11,14,20.00
2011,08,19,11,15,20.00
2011,08,19,11,16,19.90
2011,08,19,11,17,19.80
2011,08,19,11,18,19.80
2011,08,19,11,19,19.80
2011,08,19,11,20,19.80
2011,08,19,11,21,19.80
2011,08,19,11,22,19.80
2011,08,19,11,23,19.70
2011,08,19,11,24,19.70
2011,08,19,11,25,19.70
2011,08,19,11,26,19.70
2011,08,19,11,27,19.70
2011,08,19,11,28,19.70
2011,08,19,11,29,19.70
2011,08,19,11,30,19.70
2011,08,19,11,31,19.80
2011,08,19,11,32,19.80
2011,08,19,11,33,19.70
2011,08,19,11,34,19.80
2011,08,19,11,35,19.80
2011,08,19,11,36,19.90
2011,08,19,11,37,19.90
2011,08,19,11,38,19.90
2011,08,19,11,39,19.90
2011,08,19,11,40,20.00
2011,08,19,11,41,20.00
2011,08,19,11,42,20.10
2011,08,19,11,43,20.00
2011,08,19,11,44,20.10
2011,08,19,11,45,20.10
2011,08,19,11,46,20.10
2011,08,19,11,47,20.20
2011,08,19,11,48,20.30
2011,08,19,11,49,20.30
2011,08,19,11,50,20.30
2011,08,19,11,51,20.30
2011,08,19,11,52,20.20
2011,08,19,11,53,20.10
2011,08,19,11,54,20.10
2011,08,19,11,55,20.20
2011,08,19,11,56,20.30
2011,08,19,11,57,20.40
2011,08,19,11,58,20.40
2011,08,19,11,59,20.50
2011,08,19,12,00,20.60
2011,08,19,12,01,20.60
2011,08,19,12,02,20.70
2011,08,19,12,03,20.70
2011,08,19,12,04,20.70
2011,08,19,12,05,20.60
2011,08,19,12,06,20.60
2011,08,19,12,07,20.60
2011,08,19,12,08,20.50
2011,08,19,12,09,20.50
2011,08,19,12,10,20.50
2011,08,19,12,11,20.40
2011,08,19,12,12,20.40
2011,08,19,12,13,20.40
2011,08,19,12,14,20.30
2011,08,19,12,15,20.30
2011,08,19,12,16,20.30
2011,08,19,12,17,20.40
2011,08,19,12,18,20.40
2011,08,19,12,19,20.40
2011,08,19,12,20,20.50
2011,08,19,12,21,20.50
2011,08,19,12,22,20.60
2011,08,19,12,23,20.70
2011,08,19,12,24,20.80
2011,08,19,12,25,21.00
2011,08,19,12,26,21.10
2011,08,19,12,27,21.10
2011,08,19,12,28,21.10
2011,08,19,12,29,21.10
2011,08,19,12,30,21.10
2011,08,19,12,31,21.10
2011,08,19,12,32,21.10
2011,08,19,12,33,21.20
2011,08,19,12,34,21.20
2011,08,19,12,35,21.20
2011,08,19,12,36,21.10
2011,08,19,12,37,21.10
2011,08,19,12,38,21.10
2011,08,19,12,39,21.10
2011,08,19,12,40,21.00
2011,08,19,12,41,21.00
2011,08,19,12,42,21.00
2011,08,19,12,43,21.10
2011,08,19,12,44,21.10
2011,08,19,12,45,21.20
2011,08,19,12,46,21.30
2011,08,19,12,47,21.30
2011,08,19,12,48,21.40
2011,08,19,12,49,21.40
2011,08,19,12,50,21.40
2011,08,19,12,51,21.50
2011,08,19,12,52,21.60
2011,08,19,12,53,21.60
2011,08,19,12,54,21.50
2011,08,19,12,55,21.50
2011,08,19,12,56,21.40
2011,08,19,12,57,21.40
2011,08,19,12,58,21.40
2011,08,19,12,59,21.40
2011,08,19,13,00,21.20
2011,08,19,13,01,21.20
2011,08,19,13,02,21.20
2011,08,19,13,03,21.20
2011,08,19,13,04,21.20
2011,08,19,13,05,21.30
2011,08,19,13,06,21.30
2011,08,19,13,07,21.30
2011,08,19,13,08,21.40
2011,08,19,13,09,21.40
2011,08,19,13,10,21.40
2011,08,19,13,11,21.50
2011,08,19,13,12,21.60
2011,08,19,13,13,21.60
2011,08,19,13,14,21.70
2011,08,19,13,15,21.80
2011,08,19,13,16,21.80
2011,08,19,13,17,21.80
2011,08,19,13,18,21.80
2011,08,19,13,19,21.80
2011,08,19,13,20,21.80
2011,08,19,13,21,21.80
2011,08,19,13,22,21.70
2011,08,19,13,23,21.70
2011,08,19,13,24,21.80
2011,08,19,13,25,21.80
2011,08,19,13,26,21.80
2011,08,19,13,27,21.80
2011,08,19,13,28,21.90
2011,08,19,13,29,21.90
2011,08,19,13,30,21.90
2011,08,19,13,31,21.90
2011,08,19,13,32,22.00
2011,08,19,13,33,22.00
2011,08,19,13,34,22.00
2011,08,19,13,35,21.90
2011,08,19,13,36,21.90
2011,08,19,13,37,21.90
2011,08,19,13,38,22.00
2011,08,19,13,39,22.00
2011,08,19,13,40,22.10
2011,08,19,13,41,22.20
2011,08,19,13,42,22.20
2011,08,19,13,43,22.20
2011,08,19,13,44,22.20
2011,08,19,13,45,22.20
2011,08,19,13,46,22.20
2011,08,19,13,47,22.20
2011,08,19,13,48,22.10
2011,08,19,13,49,22.10
2011,08,19,13,50,22.10
2011,08,19,13,51,22.10
2011,08,19,13,52,22.20
2011,08,19,13,53,22.20
2011,08,19,13,54,22.20
2011,08,19,13,55,22.20
2011,08,19,13,56,22.30
2011,08,19,13,57,22.30
2011,08,19,13,58,22.30
2011,08,19,13,59,22.40
2011,08,19,14,00,22.50
2011,08,19,14,01,22.50
2011,08,19,14,02,22.60
2011,08,19,14,03,22.60
2011,08,19,14,04,22.60
2011,08,19,14,05,22.70
2011,08,19,14,06,22.70
2011,08,19,14,07,22.60
2011,08,19,14,08,22.60
2011,08,19,14,09,22.60
2011,08,19,14,10,22.60
2011,08,19,14,11,22.60
2011,08,19,14,12,22.60
2011,08,19,14,13,22.60
2011,08,19,14,14,22.50
2011,08,19,14,15,22.50
2011,08,19,14,16,22.50
2011,08,19,14,17,22.50
2011,08,19,14,18,22.60
2011,08,19,14,19,22.70
2011,08,19,14,20,22.80
2011,08,19,14,21,22.80
2011,08,19,14,22,22.90
2011,08,19,14,23,22.90
2011,08,19,14,24,22.90
2011,08,19,14,25,22.90
2011,08,19,14,26,22.90
2011,08,19,14,27,22.90
2011,08,19,14,28,22.90
2011,08,19,14,29,22.90
2011,08,19,14,30,22.80
2011,08,19,14,31,22.80
2011,08,19,14,32,22.80
2011,08,19,14,33,22.80
2011,08,19,14,34,22.80
2011,08,19,14,35,22.90
2011,08,19,14,36,22.90
2011,08,19,14,37,22.90
2011,08,19,14,38,22.90
2011,08,19,14,39,22.90
2011,08,19,14,40,22.90
2011,08,19,14,41,22.90
2011,08,19,14,42,22.90
2011,08,19,14,43,22.90
2011,08,19,14,44,22.90
2011,08,19,14,45,22.90
2011,08,19,14,46,22.90
2011,08,19,14,47,22.90
2011,08,19,14,48,23.00
2011,08,19,14,49,23.10
2011,08,19,14,50,23.10
2011,08,19,14,51,23.10
2011,08,19,14,52,23.20
2011,08,19,14,53,23.20
2011,08,19,14,54,23.30
2011,08,19,14,55,23.20
2011,08,19,14,56,23.10
2011,08,19,14,57,23.10
2011,08,19,14,58,23.20
2011,08,19,14,59,23.10
2011,08,19,15,00,23.10
2011,08,19,15,01,23.20
2011,08,19,15,02,23.30
2011,08,19,15,03,23.40
2011,08,19,15,04,23.40
2011,08,19,15,05,23.50
2011,08,19,15,06,23.40
2011,08,19,15,07,23.40
2011,08,19,15,08,23.40
2011,08,19,15,09,23.40
2011,08,19,15,10,23.40
2011,08,19,15,11,23.30
2011,08,19,15,12,23.40
2011,08,19,15,13,23.40
2011,08,19,15,14,23.40
2011,08,19,15,15,23.40
2011,08,19,15,16,23.40
2011,08,19,15,17,23.40
2011,08,19,15,18,23.50
2011,08,19,15,19,23.70
2011,08,19,15,20,23.70
2011,08,19,15,21,23.80
2011,08,19,15,22,23.80
2011,08,19,15,23,23.80
2011,08,19,15,24,23.80
2011,08,19,15,25,23.80
2011,08,19,15,26,23.80
2011,08,19,15,27,23.70
2011,08,19,15,28,23.70
2011,08,19,15,29,23.70
2011,08,19,15,30,23.70
2011,08,19,15,31,23.80
2011,08,19,15,32,23.80
2011,08,19,15,33,23.80
2011,08,19,15,34,23.80
2011,08,19,15,35,23.90
2011,08,19,15,36,23.90
2011,08,19,15,37,24.00
2011,08,19,15,38,23.90
2011,08,19,15,39,23.90
2011,08,19,15,40,23.90
2011,08,19,15,41,23.90
2011,08,19,15,42,23.90
2011,08,19,15,43,23.90
2011,08,19,15,44,23.90
2011,08,19,15,45,24.00
2011,08,19,15,46,24.20
2011,08,19,15,47,24.40
2011,08,19,15,48,24.50
2011,08,19,15,49,24.60
2011,08,19,15,50,24.60
2011,08,19,15,51,24.60
2011,08,19,15,52,24.70
2011,08,19,15,53,24.70
2011,08,19,15,54,24.70
2011,08,19,15,55,24.70
2011,08,19,15,56,24.70
2011,08,19,15,57,24.70
2011,08,19,15,58,24.60
2011,08,19,15,59,24.60
2011,08,19,16,00,24.60
2011,08,19,16,01,24.60
2011,08,19,16,02,24.60
2011,08,19,16,03,24.50
2011,08,19,16,04,24.40
2011,08,19,16,05,24.40
2011,08,19,16,06,24.40
2011,08,19,16,07,24.40
2011,08,19,16,08,24.50
2011,08,19,16,09,24.50
2011,08,19,16,10,24.50
2011,08,19,16,11,24.50
2011,08,19,16,12,24.50
2011,08,19,16,13,24.60
2011,08,19,16,14,24.60
2011,08,19,16,15,24.60
2011,08,19,16,16,24.60
2011,08,19,16,17,24.70
2011,08,19,16,18,24.80
2011,08,19,16,19,24.90
2011,08,19,16,20,24.90
2011,08,19,16,21,24.90
2011,08,19,16,22,24.90
2011,08,19,16,23,25.00
2011,08,19,16,24,25.00
2011,08,19,16,25,24.90
2011,08,19,16,26,24.90
2011,08,19,16,27,25.00
2011,08,19,16,28,25.10
2011,08,19,16,29,25.10
2011,08,19,16,30,25.10
2011,08,19,16,31,25.00
2011,08,19,16,32,24.90
2011,08,19,16,33,24.80
2011,08,19,16,34,24.70
2011,08,19,16,35,24.70
2011,08,19,16,36,24.60
2011,08,19,16,37,24.60
2011,08,19,16,38,24.50
2011,08,19,16,39,24.50
2011,08,19,16,40,24.50
2011,08,19,16,41,24.60
2011,08,19,16,42,24.60
2011,08,19,16,43,24.70
2011,08,19,16,44,24.70
2011,08,19,16,45,24.60
2011,08,19,16,46,24.60
2011,08,19,16,47,24.50
2011,08,19,16,48,24.40
2011,08,19,16,49,24.40
2011,08,19,16,50,24.30
2011,08,19,16,51,24.30
2011,08,19,16,52,24.30
2011,08,19,16,53,24.40
2011,08,19,16,54,24.50
2011,08,19,16,55,24.60
2011,08,19,16,56,24.60
2011,08,19,16,57,24.70
2011,08,19,16,58,24.70
2011,08,19,16,59,24.80
2011,08,19,17,00,24.80
2011,08,19,17,01,24.80
2011,08,19,17,02,24.80
2011,08,19,17,03,24.80
2011,08,19,17,04,24.80
2011,08,19,17,05,24.70
2011,08,19,17,06,24.60
2011,08,19,17,07,24.50
2011,08,19,17,08,24.50
2011,08,19,17,09,24.50
2011,08,19,17,10,24.40
2011,08,19,17,11,24.30
2011,08,19,17,12,24.20
2011,08,19,17,13,24.20
2011,08,19,17,14,24.30
2011,08,19,17,15,24.30
2011,08,19,17,16,24.20
2011,08,19,17,17,24.10
2011,08,19,17,18,24.10
2011,08,19,17,19,24.10
2011,08,19,17,20,24.10
2011,08,19,17,21,24.20
2011,08,19,17,22,24.20
2011,08,19,17,23,24.30
2011,08,19,17,24,24.30
2011,08,19,17,25,24.30